TELSTAR 11N

Last updated on Wed Sep 17 2025 00:02:47 GMT+0000 (Coordinated Universal Time)

1 34111U 09009A 25259.43353802 .00000000 00000+0 00000+0 0 9997 2 34111 0.0250 152.6382 0002182 15.1900 306.3188 1.00267893 43502
UTC large
Height (km)
Speed (km/s)
/
Latitude / Longitude
Inclination (degrees)
Orbital Period (minutes)
Azimuth
Elevation
Range (km)
Doppler Factor

Next 0 passes for location: London (51.5072 / 0.1276)

Sorry there are no passes over London.